Location: St. Louis
(38.6270°N, 90.1994°W)
Time: 08:37:12
(UTC-06:00)

SR - Pass Details

Date: 02 December 2021
Orbit: 582 x 872 km, 66.7° (Epoch: 21 January)

Event Time Altitude Azimuth Distance (km) Brightness Sun altitude
Rises 23:19:39 0° 206° (SSW) 3,041 - -72.2°
Reaches altitude 10° 23:22:02 10° 206° (SSW) 2,084 - -72.4°
Maximum altitude 23:26:43 88° 119° (ESE) 636 - -72.7°
Drops below altitude 10° 23:31:07 10° 29° (NNE) 1,957 - -73.0°
Sets 23:33:18 0° 29° (NNE) 2,840 - -73.1°
